Weather History for KP53 - December, 2012

Change the Weather History Date:

Thursday, December 13, 2012

  Actual Average (KISQ) Record (KISQ)
Temperature  
Mean Temperature 36 °F -  
Max Temperature 39 °F 31 °F 42 °F (1998)
Min Temperature 33 °F 15 °F -8 °F (1985)
Degree Days  
Heating Degree Days 29    
Moisture  
Dew Point 26 °F    
Average Humidity 66    
Maximum Humidity 85    
Minimum Humidity 49    
Precipitation  
Precipitation 0.01 in - - ()
Sea Level Pressure  
Sea Level Pressure 30.03 in    
Wind  
Wind Speed 10 mph (SSW)    
Max Wind Speed 15 mph    
Max Gust Speed 22 mph    
Averages and records for this station are not official NWS values.
T = Trace of Precipitation, MM = Missing Value Source: NWS Daily Summary

Daily Weather History Graph

Daily Weather History Graph

Search for Another Location

Airport or City:

Trip Planner

Search our weather history database for the weather conditions in past years. The results will help you decide how hot, cold, wet, or windy it might be!

Date:

Astronomy

Dec. 13, 2012 Rise Set
Actual Time 8:22 AM EST 4:59 PM EST
Civil Twilight 7:47 AM EST 5:34 PM EST
Nautical Twilight 7:09 AM EST 6:13 PM EST
Astronomical Twilight 6:32 AM EST 6:49 PM EST
Moon 8:28 AM EST (12/13) 5:43 PM EST (12/13)
Length of Visible Light 9h 47m
Length of Day
8h 37m
New Moon, 0% of the Moon is Illuminated
Dec 13
New Moon
Dec 20
First Quarter
Dec 28
Full
Jan 4
Last Quarter
Jan 11
New

Hourly Weather History & Observations

Time (EST) Temp. Windchill Dew Point Humidity Pressure Visibility Wind Dir Wind Speed Gust Speed Precip Events Conditions
12:56 AM 39.0 °F 32.3 °F 26.1 °F 60% 30.07 in - SSW 10.4 mph 18.4 mph N/A   Unknown
1:56 AM 37.0 °F 28.1 °F 28.0 °F 70% 30.07 in - SSW 15.0 mph 21.9 mph N/A   Unknown
2:56 AM 35.1 °F 29.3 °F 30.9 °F 85% 30.05 in - South 6.9 mph - 0.01 in   Unknown
3:56 AM 37.0 °F 30.4 °F 28.9 °F 73% 30.05 in - SSW 9.2 mph - N/A   Unknown
4:56 AM 37.0 °F 29.8 °F 28.0 °F 70% 30.03 in - South 10.4 mph - N/A   Unknown
5:56 AM 37.9 °F 30.9 °F 26.1 °F 62% 30.02 in - South 10.4 mph 20.7 mph N/A   Unknown
6:56 AM 37.0 °F 31.0 °F 26.1 °F 65% 30.03 in - SSW 8.1 mph - N/A   Unknown
7:56 AM 37.0 °F 28.5 °F 25.0 °F 62% 30.02 in - SSW 13.8 mph - N/A   Unknown
8:56 AM 37.0 °F 28.5 °F 24.1 °F 59% 30.02 in - South 13.8 mph 21.9 mph N/A   Unknown
9:56 AM 37.0 °F 28.9 °F 24.1 °F 59% 30.02 in - SSW 12.7 mph - N/A   Unknown
10:56 AM 37.0 °F 31.6 °F 24.1 °F 59% 30.03 in - Variable 6.9 mph 17.3 mph N/A   Unknown
11:56 AM 37.9 °F 32.1 °F 23.0 °F 55% 30.01 in - SSW 8.1 mph - N/A   Unknown
12:56 PM 39.0 °F 32.8 °F 23.0 °F 53% 29.99 in - SSW 9.2 mph 19.6 mph N/A   Unknown
1:56 PM 39.9 °F 34.5 °F 21.9 °F 49% 29.98 in - SW 8.1 mph - N/A   Unknown
2:56 PM 39.9 °F 35.1 °F 21.9 °F 49% 29.98 in - SW 6.9 mph - N/A   Unknown
3:56 PM 37.9 °F 35.5 °F 21.9 °F 53% 29.98 in - South 3.5 mph - N/A   Unknown
4:56 PM 34.0 °F 31.0 °F 24.1 °F 67% 30.00 in - South 3.5 mph - N/A   Unknown
5:56 PM 33.1 °F 27.7 °F 23.0 °F 66% 30.01 in - SSW 5.8 mph - N/A   Unknown
7:56 PM 37.9 °F 31.5 °F 32.0 °F 79% 30.04 in - North 9.2 mph - N/A   Unknown
8:56 PM 36.0 °F 28.5 °F 30.9 °F 82% 30.06 in - North 10.4 mph - N/A   Unknown
9:56 PM 35.1 °F 27.9 °F 30.0 °F 82% 30.07 in - North 9.2 mph - N/A   Unknown
10:56 PM 34.0 °F 26.0 °F 28.9 °F 82% 30.10 in - North 10.4 mph - N/A   Unknown
11:56 PM 33.1 °F 23.9 °F 27.0 °F 78% 30.12 in - North 12.7 mph - N/A   Unknown